Location: Oberkirch
(48.5323°N, 8.0787°E)
Time: 17:07:00
(UTC+00:00)

Cosmos 2228 Rocket - Pass Details

Date: 08 November 2025
Orbit: 614 x 645 km, 82.5° (Epoch: 10 December)

Event Time Altitude Azimuth Distance (km) Brightness Sun altitude
Exits shadow 05:03:26 21° 293° (WNW) 1,402 4.3 -13.7°
Drops below altitude 10° 05:06:45 10° 342° (NNW) 1,998 5.4 -13.2°
Sets 05:09:29 0° 359° (N) 2,915 6.4 -12.7°
